Overview Statistics Trail Chart Weather Telemetry Raw packets
 

This is the latest recevied weather packets stored in our database for station/object K7OWW-2. If no packets are shown the sender has not sent any weather packets the latest 10 day(s).

<< 34 35 36 37 38 39 40 >>
Time Temp. Humidity Pressure Rain* Wind** Luminosity Snow
1788044937 19.44° C 37% 1015.1 hPa 0 mm - - -
1788044337 19.44° C 38% 1015 hPa 0 mm - - -
1788043750 19.44° C 37% 1015.2 hPa 0 mm - - -
1788043440 19.44° C 38% 1015.2 hPa 0 mm - - -
1788042537 19.44° C 37% 1015.2 hPa 0 mm - - -
1788041944 18.89° C 41% 1015.2 hPa 0 mm - - -
1788041639 19.44° C 39% 1015.2 hPa 0 mm - - -
1788041337 19.44° C 36% 1015.3 hPa 0 mm - - -
1788040737 19.44° C 36% 1015.3 hPa 0 mm - - -
1788040137 19.44° C 34% 1015.3 hPa 0 mm - - -
1788039840 19.44° C 32% 1015.3 hPa 0 mm - - -
1788039537 18.89° C 33% 1015.3 hPa 0 mm - - -
1788038937 18.89° C 34% 1015.3 hPa 0 mm - - -
1788038337 18.89° C 33% 1015.4 hPa 0 mm - - -
1788038040 18.89° C 33% 1015.3 hPa 0 mm - - -
1788037737 18.89° C 34% 1015.3 hPa 0 mm - - -
1788037137 18.33° C 36% 1015.3 hPa 0 mm - - -
1788036537 17.78° C 39% 1015.3 hPa 0 mm - - -
1788036240 17.78° C 39% 1015.3 hPa 0 mm - - -
1788035937 17.22° C 40% 1015.4 hPa 0 mm - - -
1788035337 17.78° C 40% 1015.4 hPa 0 mm - - -
1788034737 17.78° C 39% 1015.4 hPa 0 mm - - -
1788034440 17.78° C 39% 1015.5 hPa 0 mm - - -
1788034138 18.33° C 37% 1015.4 hPa 0 mm - - -
1788033537 18.89° C 37% 1015.4 hPa 0 mm - - -

* Rain latest hour (hover to see other rain measurements)
** Current wind speed in m/s (hover to see current wind gust speed)